Location: La Trinit�
(48.1620°N, 3.4512°W)
Time: 15:26:25
(UTC+00:00)

Cosmos 1515 Rocket - Pass Details

Date: 08 May 2021
Orbit: 606 x 630 km, 82.5° (Epoch: 24 June)

Event Time Altitude Azimuth Distance (km) Brightness Sun altitude
Exits shadow 21:17:37 23° 137° (SE) 1,338 4.6 -14.0°
Maximum altitude 21:19:36 34° 91° (E) 1,030 4.3 -14.3°
Drops below altitude 10° 21:23:36 10° 26° (NNE) 1,996 6.5 -14.7°
Sets 21:25:58 0° 18° (NNE) 2,903 7.5 -14.9°
